Year,Month,Day,Hour,Minute,Value (Times are PST for temperature in C)
2018,02,03,00,00,9.50
2018,02,03,00,01,9.40
2018,02,03,00,02,9.40
2018,02,03,00,03,9.40
2018,02,03,00,04,9.50
2018,02,03,00,05,9.50
2018,02,03,00,06,9.50
2018,02,03,00,07,9.40
2018,02,03,00,08,9.50
2018,02,03,00,09,9.50
2018,02,03,00,10,9.50
2018,02,03,00,11,9.50
2018,02,03,00,12,9.50
2018,02,03,00,13,9.60
2018,02,03,00,14,9.60
2018,02,03,00,15,9.60
2018,02,03,00,16,9.60
2018,02,03,00,17,9.60
2018,02,03,00,18,9.60
2018,02,03,00,19,9.60
2018,02,03,00,20,9.60
2018,02,03,00,21,9.60
2018,02,03,00,22,9.70
2018,02,03,00,23,9.70
2018,02,03,00,24,9.60
2018,02,03,00,25,9.60
2018,02,03,00,26,9.60
2018,02,03,00,27,9.60
2018,02,03,00,28,9.60
2018,02,03,00,29,9.60
2018,02,03,00,30,9.60
2018,02,03,00,31,9.60
2018,02,03,00,32,9.60
2018,02,03,00,33,9.60
2018,02,03,00,34,9.60
2018,02,03,00,35,9.60
2018,02,03,00,36,9.60
2018,02,03,00,37,9.60
2018,02,03,00,38,9.60
2018,02,03,00,39,9.60
2018,02,03,00,40,9.60
2018,02,03,00,41,9.60
2018,02,03,00,42,9.60
2018,02,03,00,43,9.60
2018,02,03,00,44,9.60
2018,02,03,00,45,9.60
2018,02,03,00,46,9.60
2018,02,03,00,47,9.60
2018,02,03,00,48,9.60
2018,02,03,00,49,9.60
2018,02,03,00,50,9.60
2018,02,03,00,51,9.60
2018,02,03,00,52,9.60
2018,02,03,00,53,9.60
2018,02,03,00,54,9.50
2018,02,03,00,55,9.50
2018,02,03,00,56,9.50
2018,02,03,00,57,9.50
2018,02,03,00,58,9.50
2018,02,03,00,59,9.50
2018,02,03,01,00,9.50
2018,02,03,01,01,9.50
2018,02,03,01,02,9.50
2018,02,03,01,03,9.50
2018,02,03,01,04,9.50
2018,02,03,01,05,9.50
2018,02,03,01,06,9.50
2018,02,03,01,07,9.50
2018,02,03,01,08,9.60
2018,02,03,01,09,9.60
2018,02,03,01,10,9.60
2018,02,03,01,11,9.60
2018,02,03,01,12,9.60
2018,02,03,01,13,9.60
2018,02,03,01,14,9.60
2018,02,03,01,15,9.60
2018,02,03,01,16,9.60
2018,02,03,01,17,9.60
2018,02,03,01,18,9.60
2018,02,03,01,19,9.60
2018,02,03,01,20,9.60
2018,02,03,01,21,9.60
2018,02,03,01,22,9.50
2018,02,03,01,23,9.50
2018,02,03,01,24,9.50
2018,02,03,01,25,9.50
2018,02,03,01,26,9.60
2018,02,03,01,27,9.60
2018,02,03,01,28,9.60
2018,02,03,01,29,9.60
2018,02,03,01,30,9.60
2018,02,03,01,31,9.60
2018,02,03,01,32,9.60
2018,02,03,01,33,9.60
2018,02,03,01,34,9.60
2018,02,03,01,35,9.60
2018,02,03,01,36,9.60
2018,02,03,01,37,9.60
2018,02,03,01,38,9.60
2018,02,03,01,39,9.60
2018,02,03,01,40,9.60
2018,02,03,01,41,9.60
2018,02,03,01,42,9.60
2018,02,03,01,43,9.60
2018,02,03,01,44,9.70
2018,02,03,01,45,9.70
2018,02,03,01,46,9.70
2018,02,03,01,47,9.70
2018,02,03,01,48,9.80
2018,02,03,01,49,9.70
2018,02,03,01,50,9.70
2018,02,03,01,51,9.70
2018,02,03,01,52,9.70
2018,02,03,01,53,9.70
2018,02,03,01,54,9.70
2018,02,03,01,55,9.70
2018,02,03,01,56,9.70
2018,02,03,01,57,9.70
2018,02,03,01,58,9.70
2018,02,03,01,59,9.70
2018,02,03,02,00,9.70
2018,02,03,08,25,8.00
2018,02,03,08,26,8.00
2018,02,03,08,27,8.00
2018,02,03,08,28,8.00
2018,02,03,08,29,8.00
2018,02,03,08,30,8.00
2018,02,03,08,31,8.00
2018,02,03,08,32,8.00
2018,02,03,08,33,8.00
2018,02,03,08,34,8.00
2018,02,03,08,35,7.90
2018,02,03,08,36,7.90
2018,02,03,08,37,7.90
2018,02,03,08,38,7.90
2018,02,03,08,39,7.90
2018,02,03,08,40,7.80
2018,02,03,08,41,7.80
2018,02,03,08,42,7.80
2018,02,03,08,43,7.80
2018,02,03,08,44,7.80
2018,02,03,08,45,7.80
2018,02,03,08,46,7.80
2018,02,03,08,47,7.80
2018,02,03,08,48,7.80
2018,02,03,08,49,7.80
2018,02,03,08,50,7.80
2018,02,03,08,51,7.80
2018,02,03,08,52,7.80
2018,02,03,08,53,7.80
2018,02,03,08,54,7.80
2018,02,03,08,55,7.80
2018,02,03,08,56,7.80
2018,02,03,08,57,7.80
2018,02,03,08,58,7.80
2018,02,03,08,59,7.80
2018,02,03,09,00,7.90
2018,02,03,09,01,7.90
2018,02,03,09,02,7.90
2018,02,03,09,03,8.00
2018,02,03,09,04,8.00
2018,02,03,09,05,8.10
2018,02,03,09,06,8.20
2018,02,03,09,07,8.20
2018,02,03,09,08,8.20
2018,02,03,09,09,8.30
2018,02,03,09,10,8.30
2018,02,03,09,11,8.40
2018,02,03,09,12,8.40
2018,02,03,09,13,8.40
2018,02,03,09,14,8.50
2018,02,03,09,15,8.50
2018,02,03,09,16,8.60
2018,02,03,09,17,8.60
2018,02,03,09,18,8.60
2018,02,03,09,19,8.60
2018,02,03,09,20,8.70
2018,02,03,09,21,8.70
2018,02,03,09,22,8.70
2018,02,03,09,23,8.70
2018,02,03,09,24,8.70
2018,02,03,09,25,8.80
2018,02,03,09,26,8.80
2018,02,03,09,27,8.80
2018,02,03,09,28,8.80
2018,02,03,09,29,8.80
2018,02,03,09,30,8.80
2018,02,03,09,31,8.80
2018,02,03,09,32,8.80
2018,02,03,09,33,8.80
2018,02,03,09,34,8.80
2018,02,03,09,35,8.80
2018,02,03,09,36,8.80
2018,02,03,09,37,8.80
2018,02,03,09,38,8.90
2018,02,03,09,39,8.90
2018,02,03,09,40,8.90
2018,02,03,09,41,8.90
2018,02,03,09,42,8.90
2018,02,03,09,43,8.90
2018,02,03,09,44,8.90
2018,02,03,09,45,8.90
2018,02,03,09,46,8.90
2018,02,03,09,47,8.90
2018,02,03,09,48,8.90
2018,02,03,09,49,8.90
2018,02,03,09,50,9.00
2018,02,03,09,51,9.00
2018,02,03,09,52,9.10
2018,02,03,09,53,9.10
2018,02,03,09,54,9.10
2018,02,03,09,55,9.20
2018,02,03,09,56,9.20
2018,02,03,09,57,9.30
2018,02,03,09,58,9.30
2018,02,03,09,59,9.40
2018,02,03,10,00,9.40
2018,02,03,10,01,9.40
2018,02,03,10,02,9.40
2018,02,03,10,03,9.40
2018,02,03,10,04,9.30
2018,02,03,10,05,9.30
2018,02,03,10,06,9.30
2018,02,03,10,07,9.30
2018,02,03,10,08,9.30
2018,02,03,10,09,9.30
2018,02,03,10,10,9.30
2018,02,03,10,11,9.30
2018,02,03,10,12,9.30
2018,02,03,10,13,9.30
2018,02,03,10,14,9.30
2018,02,03,10,15,9.30
2018,02,03,10,16,9.30
2018,02,03,10,17,9.30
2018,02,03,10,18,9.40
2018,02,03,10,19,9.40
2018,02,03,10,20,9.40
2018,02,03,10,21,9.50
2018,02,03,10,22,9.50
2018,02,03,10,23,9.50
2018,02,03,10,24,9.60
2018,02,03,10,25,9.60
2018,02,03,10,26,9.60
2018,02,03,10,27,9.70
2018,02,03,10,28,9.70
2018,02,03,10,29,9.70
2018,02,03,10,30,9.70
2018,02,03,10,31,9.80
2018,02,03,10,32,9.80
2018,02,03,10,33,9.80
2018,02,03,10,34,9.90
2018,02,03,10,35,9.90
2018,02,03,10,36,9.90
2018,02,03,10,37,9.90
2018,02,03,10,38,9.90
2018,02,03,10,39,9.90
2018,02,03,10,40,9.80
2018,02,03,10,41,9.80
2018,02,03,10,42,9.70
2018,02,03,10,43,9.70
2018,02,03,10,44,9.70
2018,02,03,10,45,9.70
2018,02,03,10,46,9.70
2018,02,03,10,47,9.70
2018,02,03,10,48,9.70
2018,02,03,10,49,9.70
2018,02,03,10,50,9.60
2018,02,03,10,51,9.60
2018,02,03,10,52,9.60
2018,02,03,10,53,9.60
2018,02,03,10,54,9.70
2018,02,03,10,55,9.70
2018,02,03,10,56,9.70
2018,02,03,10,57,9.70
2018,02,03,10,58,9.70
2018,02,03,10,59,9.70
2018,02,03,11,00,9.70
2018,02,03,11,01,9.80
2018,02,03,11,02,9.80
2018,02,03,11,03,9.80
2018,02,03,11,04,9.80
2018,02,03,11,05,9.80
2018,02,03,11,06,9.80
2018,02,03,11,07,9.90
2018,02,03,11,08,9.90
2018,02,03,11,09,9.90
2018,02,03,11,10,9.90
2018,02,03,11,11,9.90
2018,02,03,11,12,9.90
2018,02,03,11,13,9.90
2018,02,03,11,14,9.90
2018,02,03,11,15,9.90
2018,02,03,11,16,9.90
2018,02,03,11,17,9.90
2018,02,03,11,18,10.00
2018,02,03,11,19,10.00
2018,02,03,11,20,10.00
2018,02,03,11,21,10.00
2018,02,03,11,22,10.00
2018,02,03,11,23,10.00
2018,02,03,11,24,10.10
2018,02,03,11,25,10.10
2018,02,03,11,26,10.10
2018,02,03,11,27,10.10
2018,02,03,11,28,10.10
2018,02,03,11,29,10.10
2018,02,03,11,30,10.10
2018,02,03,11,31,10.10
2018,02,03,11,32,10.00
2018,02,03,11,33,10.00
2018,02,03,11,34,10.00
2018,02,03,11,35,10.00
2018,02,03,11,36,10.00
2018,02,03,11,37,10.00
2018,02,03,11,38,10.00
2018,02,03,11,39,10.00
2018,02,03,11,40,10.00
2018,02,03,11,41,10.00
2018,02,03,11,42,10.00
2018,02,03,11,43,10.00
2018,02,03,11,44,10.10
2018,02,03,11,45,10.10
2018,02,03,11,46,10.10
2018,02,03,11,47,10.10
2018,02,03,11,48,10.10
2018,02,03,11,49,10.20
2018,02,03,11,50,10.10
2018,02,03,11,51,10.20
2018,02,03,11,52,10.20
2018,02,03,11,53,10.20
2018,02,03,11,54,10.20
2018,02,03,11,55,10.20
2018,02,03,11,56,10.20
2018,02,03,11,57,10.20
2018,02,03,11,58,10.20
2018,02,03,11,59,10.20
2018,02,03,12,00,10.20
2018,02,03,12,01,10.20
2018,02,03,12,02,10.30
2018,02,03,12,03,10.30
2018,02,03,12,04,10.30
2018,02,03,12,05,10.30
2018,02,03,12,06,10.30
2018,02,03,12,07,10.30
2018,02,03,12,08,10.30
2018,02,03,12,09,10.30
2018,02,03,12,10,10.30
2018,02,03,12,11,10.30
2018,02,03,12,12,10.30
2018,02,03,12,13,10.30
2018,02,03,12,14,10.30
2018,02,03,12,15,10.30
2018,02,03,12,16,10.30
2018,02,03,12,17,10.30
2018,02,03,12,18,10.30
2018,02,03,12,19,10.30
2018,02,03,12,20,10.30
2018,02,03,12,21,10.30
2018,02,03,12,22,10.30
2018,02,03,12,23,10.30
2018,02,03,12,24,10.30
2018,02,03,12,25,10.40
2018,02,03,12,26,10.40
2018,02,03,12,27,10.40
2018,02,03,12,28,10.40
2018,02,03,12,29,10.30
2018,02,03,12,30,10.40
2018,02,03,12,31,10.40
2018,02,03,12,32,10.40
2018,02,03,12,33,10.40
2018,02,03,12,34,10.40
2018,02,03,12,35,10.40
2018,02,03,12,36,10.40
2018,02,03,12,37,10.40
2018,02,03,12,38,10.40
2018,02,03,12,39,10.40
2018,02,03,12,40,10.40
2018,02,03,12,41,10.40
2018,02,03,12,42,10.40
2018,02,03,12,43,10.40
2018,02,03,12,44,10.40
2018,02,03,12,45,10.40
2018,02,03,12,46,10.40
2018,02,03,12,47,10.40
2018,02,03,12,48,10.50
2018,02,03,12,49,10.50
2018,02,03,12,50,10.50
2018,02,03,12,51,10.50
2018,02,03,12,52,10.50
2018,02,03,12,53,10.50
2018,02,03,12,54,10.40
2018,02,03,12,55,10.40
2018,02,03,12,56,10.40
2018,02,03,12,57,10.40
2018,02,03,12,58,10.40
2018,02,03,12,59,10.40
2018,02,03,13,00,10.50
2018,02,03,13,01,10.50
2018,02,03,13,02,10.50
2018,02,03,13,03,10.40
2018,02,03,13,04,10.40
2018,02,03,13,05,10.40
2018,02,03,13,06,10.40
2018,02,03,13,07,10.40
2018,02,03,13,08,10.40
2018,02,03,13,09,10.40
2018,02,03,13,10,10.40
2018,02,03,13,11,10.50
2018,02,03,13,12,10.50
2018,02,03,13,13,10.50
2018,02,03,13,14,10.50
2018,02,03,13,15,10.50
2018,02,03,13,16,10.60
2018,02,03,13,17,10.60
2018,02,03,13,18,10.60
2018,02,03,13,19,10.70
2018,02,03,13,20,10.70
2018,02,03,13,21,10.70
2018,02,03,13,22,10.80
2018,02,03,13,23,10.80
2018,02,03,13,24,10.80
2018,02,03,13,25,10.80
2018,02,03,13,26,10.80
2018,02,03,13,27,10.80
2018,02,03,13,28,10.80
2018,02,03,13,29,10.80
2018,02,03,13,30,10.80
2018,02,03,13,31,10.90
2018,02,03,13,32,10.90
2018,02,03,13,33,10.90
2018,02,03,13,34,10.90
2018,02,03,13,35,10.90
2018,02,03,13,36,10.90
2018,02,03,13,37,10.90
2018,02,03,13,38,10.90
2018,02,03,13,39,10.90
2018,02,03,13,40,10.90
2018,02,03,13,41,10.90
2018,02,03,13,42,10.90
2018,02,03,13,43,10.90
2018,02,03,13,44,10.90
2018,02,03,13,45,10.90
2018,02,03,13,46,10.80
2018,02,03,13,47,10.80
2018,02,03,13,48,10.80
2018,02,03,13,49,10.80
2018,02,03,13,50,10.70
2018,02,03,13,51,10.70
2018,02,03,13,52,10.70
2018,02,03,13,53,10.70
2018,02,03,13,54,10.70
2018,02,03,13,55,10.70
2018,02,03,13,56,10.70
2018,02,03,13,57,10.60
2018,02,03,13,58,10.60
2018,02,03,13,59,10.60
2018,02,03,14,00,10.60
2018,02,03,14,01,10.60
2018,02,03,14,02,10.60
2018,02,03,14,03,10.60
2018,02,03,14,04,10.60
2018,02,03,14,05,10.60
2018,02,03,14,06,10.60
2018,02,03,14,07,10.50
2018,02,03,14,08,10.50
2018,02,03,14,09,10.50
2018,02,03,14,10,10.50
2018,02,03,14,11,10.50
2018,02,03,14,12,10.40
2018,02,03,14,13,10.40
2018,02,03,14,14,10.40
2018,02,03,14,15,10.40
2018,02,03,14,16,10.40
2018,02,03,14,17,10.40
2018,02,03,14,18,10.40
2018,02,03,14,19,10.40
2018,02,03,14,20,10.40
2018,02,03,14,21,10.40
2018,02,03,14,22,10.40
2018,02,03,14,23,10.40
2018,02,03,14,24,10.40
2018,02,03,14,25,10.40
2018,02,03,14,26,10.40
2018,02,03,14,27,10.30
2018,02,03,14,28,10.30
2018,02,03,14,29,10.30
2018,02,03,14,30,10.30
2018,02,03,14,31,10.30
2018,02,03,14,32,10.30
2018,02,03,14,33,10.30
2018,02,03,14,34,10.40
2018,02,03,14,35,10.40
2018,02,03,14,36,10.40
2018,02,03,14,37,10.30
2018,02,03,14,38,10.30
2018,02,03,14,39,10.30
2018,02,03,14,40,10.30
2018,02,03,14,41,10.30
2018,02,03,14,42,10.30
2018,02,03,14,43,10.30
2018,02,03,14,44,10.30
2018,02,03,14,45,10.30
2018,02,03,14,46,10.30
2018,02,03,14,47,10.30
2018,02,03,14,48,10.30
2018,02,03,14,49,10.40
2018,02,03,14,50,10.40
2018,02,03,14,51,10.40
2018,02,03,14,52,10.40
2018,02,03,14,53,10.40
2018,02,03,14,54,10.40
2018,02,03,14,55,10.40
2018,02,03,14,56,10.40
2018,02,03,14,57,10.40
2018,02,03,14,58,10.40
2018,02,03,14,59,10.40
2018,02,03,15,00,10.30
2018,02,03,15,01,10.30
2018,02,03,15,02,10.30
2018,02,03,15,03,10.30
2018,02,03,15,04,10.30
2018,02,03,15,05,10.30
2018,02,03,15,06,10.30
2018,02,03,15,07,10.30
2018,02,03,15,08,10.30
2018,02,03,15,09,10.30
2018,02,03,15,10,10.30
2018,02,03,15,11,10.30
2018,02,03,15,12,10.30
2018,02,03,15,13,10.30
2018,02,03,15,14,10.30
2018,02,03,15,15,10.20
2018,02,03,15,16,10.20
2018,02,03,15,17,10.20
2018,02,03,15,18,10.20
2018,02,03,15,19,10.20
2018,02,03,15,20,10.20
2018,02,03,15,21,10.20
2018,02,03,15,22,10.10
2018,02,03,15,23,10.10
2018,02,03,15,24,10.10
2018,02,03,15,25,10.10
2018,02,03,15,26,10.10
2018,02,03,15,27,10.10
2018,02,03,15,28,10.10
2018,02,03,15,29,10.10
2018,02,03,15,30,10.10
2018,02,03,15,31,10.10
2018,02,03,15,32,10.10
2018,02,03,15,33,10.00
2018,02,03,15,34,10.00
2018,02,03,15,35,10.00
2018,02,03,15,36,10.00
2018,02,03,15,37,9.90
2018,02,03,15,38,9.90
2018,02,03,15,39,9.90
2018,02,03,15,40,9.90
2018,02,03,15,41,9.90
2018,02,03,15,42,9.90
2018,02,03,15,43,9.90
2018,02,03,15,44,9.80
2018,02,03,15,45,9.80
2018,02,03,15,46,9.80
2018,02,03,15,47,9.80
2018,02,03,15,48,9.80
2018,02,03,15,49,9.80
2018,02,03,15,50,9.80
2018,02,03,15,51,9.80
2018,02,03,15,52,9.80
2018,02,03,15,53,9.80
2018,02,03,15,54,9.80
2018,02,03,15,55,9.80
2018,02,03,15,56,9.80
2018,02,03,15,57,9.80
2018,02,03,15,58,9.80
2018,02,03,15,59,9.80
2018,02,03,16,00,9.70
2018,02,03,16,01,9.70
2018,02,03,16,02,9.70
2018,02,03,16,03,9.70
2018,02,03,16,04,9.70
2018,02,03,16,05,9.70
2018,02,03,16,06,9.70
2018,02,03,16,07,9.70
2018,02,03,16,08,9.70
2018,02,03,16,09,9.70
2018,02,03,16,10,9.70
2018,02,03,16,11,9.70
2018,02,03,16,12,9.70
2018,02,03,16,13,9.60
2018,02,03,16,14,9.60
2018,02,03,16,15,9.60
2018,02,03,16,16,9.60
2018,02,03,16,17,9.60
2018,02,03,16,18,9.60
2018,02,03,16,19,9.60
2018,02,03,16,20,9.60
2018,02,03,16,21,9.60
2018,02,03,16,22,9.60
2018,02,03,16,23,9.60
2018,02,03,16,24,9.60
2018,02,03,16,25,9.60
2018,02,03,16,26,9.60
2018,02,03,16,27,9.60
2018,02,03,16,28,9.60
2018,02,03,16,29,9.60
2018,02,03,16,30,9.60
2018,02,03,16,31,9.60
2018,02,03,16,32,9.60
2018,02,03,16,33,9.60
2018,02,03,16,34,9.60
2018,02,03,16,35,9.60
2018,02,03,16,36,9.60
2018,02,03,16,37,9.60
2018,02,03,16,38,9.60
2018,02,03,16,39,9.50
2018,02,03,16,40,9.50
2018,02,03,16,41,9.50
2018,02,03,16,42,9.50
2018,02,03,16,43,9.50
2018,02,03,16,44,9.50
2018,02,03,16,45,9.50
2018,02,03,16,46,9.50
2018,02,03,16,47,9.50
2018,02,03,16,48,9.50
2018,02,03,16,49,9.50
2018,02,03,16,50,9.50
2018,02,03,16,51,9.50
2018,02,03,16,52,9.40
2018,02,03,16,53,9.40
2018,02,03,16,54,9.40
2018,02,03,16,55,9.40
2018,02,03,16,56,9.40
2018,02,03,16,57,9.40
2018,02,03,16,58,9.40
2018,02,03,16,59,9.40
2018,02,03,17,00,9.40
2018,02,03,17,01,9.40
2018,02,03,17,02,9.40
2018,02,03,17,03,9.40
2018,02,03,17,04,9.40
2018,02,03,17,05,9.40
2018,02,03,17,06,9.40
2018,02,03,17,07,9.40
2018,02,03,17,08,9.40
2018,02,03,17,09,9.40
2018,02,03,17,10,9.30
2018,02,03,17,11,9.30
2018,02,03,17,12,9.30
2018,02,03,17,13,9.30
2018,02,03,17,14,9.30
2018,02,03,17,15,9.30
2018,02,03,17,16,9.30
2018,02,03,17,17,9.30
2018,02,03,17,18,9.30
2018,02,03,17,19,9.30
2018,02,03,17,20,9.30
2018,02,03,17,21,9.30
2018,02,03,17,22,9.30
2018,02,03,17,23,9.30
2018,02,03,17,24,9.30
2018,02,03,17,25,9.30
2018,02,03,17,26,9.30
2018,02,03,17,27,9.30
2018,02,03,17,28,9.30
2018,02,03,17,29,9.30
2018,02,03,17,30,9.30
2018,02,03,17,31,9.30
2018,02,03,17,32,9.30
2018,02,03,17,33,9.30
2018,02,03,17,34,9.30
2018,02,03,17,35,9.30
2018,02,03,17,36,9.30
2018,02,03,17,37,9.30
2018,02,03,17,38,9.30
2018,02,03,17,39,9.30
2018,02,03,17,40,9.30
2018,02,03,17,41,9.30
2018,02,03,17,42,9.30
2018,02,03,17,43,9.30
2018,02,03,17,44,9.30
2018,02,03,17,45,9.30
2018,02,03,17,46,9.30
2018,02,03,17,47,9.30
2018,02,03,17,48,9.20
2018,02,03,17,49,9.20
2018,02,03,17,50,9.20
2018,02,03,17,51,9.20
2018,02,03,17,52,9.20
2018,02,03,17,53,9.20
2018,02,03,17,54,9.20
2018,02,03,17,55,9.20
2018,02,03,17,56,9.20
2018,02,03,17,57,9.20
2018,02,03,17,58,9.10
2018,02,03,17,59,9.10
2018,02,03,18,00,9.10
2018,02,03,18,01,9.10
2018,02,03,18,02,9.10
2018,02,03,18,03,9.10
2018,02,03,18,04,9.10
2018,02,03,18,05,9.10
2018,02,03,18,06,9.10
2018,02,03,18,07,9.10
2018,02,03,18,08,9.10
2018,02,03,18,09,9.10
2018,02,03,18,10,9.10
2018,02,03,18,11,9.10
2018,02,03,18,12,9.20
2018,02,03,18,13,9.20
2018,02,03,18,14,9.20
2018,02,03,18,15,9.20
2018,02,03,18,16,9.20
2018,02,03,18,17,9.20
2018,02,03,18,18,9.20
2018,02,03,18,19,9.20
2018,02,03,18,20,9.20
2018,02,03,18,21,9.20
2018,02,03,18,22,9.20
2018,02,03,18,23,9.20
2018,02,03,18,24,9.20
2018,02,03,18,25,9.20
2018,02,03,18,26,9.10
2018,02,03,18,27,9.10
2018,02,03,18,28,9.10
2018,02,03,18,29,9.10
2018,02,03,18,30,9.00
2018,02,03,18,31,9.00
2018,02,03,18,32,9.00
2018,02,03,18,33,9.00
2018,02,03,18,34,9.00
2018,02,03,18,35,9.00
2018,02,03,18,36,9.00
2018,02,03,18,37,9.00
2018,02,03,18,38,9.00
2018,02,03,18,39,9.00
2018,02,03,18,40,9.00
2018,02,03,18,41,9.00
2018,02,03,18,42,9.00
2018,02,03,18,43,9.00
2018,02,03,18,44,9.00
2018,02,03,18,45,9.00
2018,02,03,18,46,9.00
2018,02,03,18,47,9.00
2018,02,03,18,48,9.00
2018,02,03,18,49,9.00
2018,02,03,18,50,9.00
2018,02,03,18,51,9.00
2018,02,03,18,52,9.00
2018,02,03,18,53,9.00
2018,02,03,18,54,9.10
2018,02,03,18,55,9.10
2018,02,03,18,56,9.10
2018,02,03,18,57,9.10
2018,02,03,18,58,9.10
2018,02,03,18,59,9.10
2018,02,03,19,00,9.10
2018,02,03,19,01,9.10
2018,02,03,19,02,9.10
2018,02,03,19,03,9.10
2018,02,03,19,04,9.10
2018,02,03,19,05,9.10
2018,02,03,19,06,9.20
2018,02,03,19,07,9.20
2018,02,03,19,08,9.10
2018,02,03,19,09,9.10
2018,02,03,19,10,9.10
2018,02,03,19,11,9.10
2018,02,03,19,12,9.10
2018,02,03,19,13,9.10
2018,02,03,19,14,9.10
2018,02,03,19,15,9.10
2018,02,03,19,16,9.10
2018,02,03,19,17,9.10
2018,02,03,19,18,9.10
2018,02,03,19,19,9.10
2018,02,03,19,20,9.10
2018,02,03,19,21,9.10
2018,02,03,19,22,9.10
2018,02,03,19,23,9.10
2018,02,03,19,24,9.10
2018,02,03,19,25,9.10
2018,02,03,19,26,9.10
2018,02,03,19,27,9.10
2018,02,03,19,28,9.10
2018,02,03,19,29,9.10
2018,02,03,19,30,9.10
2018,02,03,19,31,9.10
2018,02,03,19,32,9.10
2018,02,03,19,33,9.10
2018,02,03,19,34,9.10
2018,02,03,19,35,9.10
2018,02,03,19,36,9.10
2018,02,03,19,37,9.10
2018,02,03,19,38,9.10
2018,02,03,19,39,9.10
2018,02,03,19,40,9.10
2018,02,03,19,41,9.10
2018,02,03,19,42,9.10
2018,02,03,19,43,9.10
2018,02,03,19,44,9.10
2018,02,03,19,45,9.10
2018,02,03,19,46,9.10
2018,02,03,19,47,9.10
2018,02,03,19,48,9.00
2018,02,03,19,49,9.00
2018,02,03,19,50,9.00
2018,02,03,19,51,9.00
2018,02,03,19,52,9.00
2018,02,03,19,53,9.00
2018,02,03,19,54,9.00
2018,02,03,19,55,9.00
2018,02,03,19,56,9.00
2018,02,03,19,57,9.00
2018,02,03,19,58,9.00
2018,02,03,19,59,9.00
2018,02,03,20,00,8.90
2018,02,03,20,01,8.90
2018,02,03,20,02,8.90
2018,02,03,20,03,8.90
2018,02,03,20,04,9.00
2018,02,03,20,05,9.00
2018,02,03,20,06,8.90
2018,02,03,20,07,8.90
2018,02,03,20,08,8.90
2018,02,03,20,09,8.90
2018,02,03,20,10,8.90
2018,02,03,20,11,8.90
2018,02,03,20,12,8.90
2018,02,03,20,13,8.90
2018,02,03,20,14,8.90
2018,02,03,20,15,8.90
2018,02,03,20,16,8.90
2018,02,03,20,17,8.90
2018,02,03,20,18,8.90
2018,02,03,20,19,8.90
2018,02,03,20,20,8.90
2018,02,03,20,21,8.90
2018,02,03,20,22,8.90
2018,02,03,20,23,8.90
2018,02,03,20,24,8.90
2018,02,03,20,25,8.90
2018,02,03,20,26,8.90
2018,02,03,20,27,8.90
2018,02,03,20,28,8.90
2018,02,03,20,29,8.90
2018,02,03,20,30,8.90
2018,02,03,20,31,8.90
2018,02,03,20,32,8.90
2018,02,03,20,33,8.90
2018,02,03,20,34,8.90
2018,02,03,20,35,8.90
2018,02,03,20,36,8.90
2018,02,03,20,37,8.90
2018,02,03,20,38,8.90
2018,02,03,20,39,8.90
2018,02,03,20,40,8.90
2018,02,03,20,41,8.90
2018,02,03,20,42,8.90
2018,02,03,20,43,8.90
2018,02,03,20,44,8.90
2018,02,03,20,45,8.90
2018,02,03,20,46,8.90
2018,02,03,20,47,8.90
2018,02,03,20,48,8.90
2018,02,03,20,49,8.90
2018,02,03,20,50,8.80
2018,02,03,20,51,8.80
2018,02,03,20,52,8.80
2018,02,03,20,53,8.80
2018,02,03,20,54,8.80
2018,02,03,20,55,8.80
2018,02,03,20,56,8.80
2018,02,03,20,57,8.80
2018,02,03,20,58,8.80
2018,02,03,20,59,8.80
2018,02,03,21,00,8.80
2018,02,03,21,01,8.80
2018,02,03,21,02,8.80
2018,02,03,21,03,8.80
2018,02,03,21,04,8.80
2018,02,03,21,05,8.70
2018,02,03,21,06,8.70
2018,02,03,21,07,8.70
2018,02,03,21,08,8.70
2018,02,03,21,09,8.70
2018,02,03,21,10,8.70
2018,02,03,21,11,8.70
2018,02,03,21,12,8.70
2018,02,03,21,13,8.70
2018,02,03,21,14,8.70
2018,02,03,21,15,8.70
2018,02,03,21,16,8.70
2018,02,03,21,17,8.70
2018,02,03,21,18,8.70
2018,02,03,21,19,8.70
2018,02,03,21,20,8.70
2018,02,03,21,21,8.70
2018,02,03,21,22,8.70
2018,02,03,21,23,8.60
2018,02,03,21,24,8.60
2018,02,03,21,25,8.60
2018,02,03,21,26,8.60
2018,02,03,21,27,8.60
2018,02,03,21,28,8.60
2018,02,03,21,29,8.60
2018,02,03,21,30,8.60
2018,02,03,21,31,8.60
2018,02,03,21,32,8.60
2018,02,03,21,33,8.60
2018,02,03,21,34,8.60
